星链-32008 (STARLINK-32008 )

导读

STARLINK-32008是美国于2024年6月8日发射的星链卫星,隶属于SpaceX星链星座计划。星链计划旨在构建全球卫星互联网通信网络,为全球偏远地区、海洋等信号覆盖薄弱区域提供高速宽带服务,该卫星入轨后进一步扩充了星链星座的在轨卫星规模,提升了全球网络覆盖能力与通信服务稳定性。

基本信息
目录编号:
60028
目录名称:
STARLINK-32008
国际标识:
2024-111N
轨道中心:
EARTH
卫星名称:
星链-32008
卫星全名:
星链-32008 (STARLINK-32008 )
卫星状态:
在轨 (已飞行740 天)
发射日期:
2024-06-08 UTC
国别 :
美国 (US)
星等 :
--
轨道信息
数据来源 国际轨道数据
星历时间: 2026-06-18T01:50:34+0800
6小时前
查看轨道信息
半长轴: 6853.35km
偏心率: 0.0001451
轨道倾角: 53.162°
近地点辐角 89.435°
升交点赤经 330.777°
平近点角 270.681°
近地点: 474.218km
远地点: 476.208km
周期: 94.105分钟
每日圈数: 15.30201
详细信息
固有亮度:
5
最大亮度:
1.5
卫星平台:
Starlink v2.0 mini
覆盖范围:
全球
运营商:
太空探索技术公司
运营商所在国:
美国
制造商(研发单位):
太空探索技术公司
制造商所在国:
美国
使用方式:
暂无
卫星简介
星链(Starlink)计划是由太空探索技术公司(SpaceX)提出的一个巨型低轨卫星互联网星座项目,计划在2019年至2024年间在太空搭建由约1.2万颗卫星组成的“星链”网络,其中1584颗将部署在地球上空550千米处的近地轨道,并从2020年开始工作。该卫星仍在工作。
2D轨道图
3D轨道图
轨道高度分析图
轨道倾角分析图
轨道综合分析图
查看轨道综合分析图